Location: Fumechon
(49.5239°N, 2.3657°E)
Time: 14:07:34
(UTC+00:00)

Daily predictions for brighter satellites

Satellite Brightness Start Highest point End
(mag) Time Altitude Azimuth Time Altitude Azimuth Time Altitude Azimuth
Cosmos 2227 Rocket 3.0 20:13:40 10° NW 20:19:10 52° WSW 20:24:37 10° S
Cosmos 921 Rocket 3.3 20:16:01 10° NNW 20:20:31 62° ENE 20:24:57 10° SSE
Landsat 7 4.5 20:16:40 10° S 20:21:18 56° W 20:25:58 10° NNW
PSLV R/B 3.9 20:17:57 10° NNE 20:22:02 85° ESE 20:26:03 10° SSW
SL-24 R/B - RUBIN 2 4.5 20:25:41 10° NNW 20:29:49 39° NE 20:34:04 10° ESE
Cosmos 1980 Rocket 2.4 20:24:31 10° S 20:29:55 49° ESE 20:35:22 10° NE
Cosmos 1869 Rocket 4.2 20:25:45 10° N 20:30:02 42° ENE 20:34:16 10° SE
CARTOSAT-1 3.7 20:26:58 10° SSE 20:31:13 62° ENE 20:35:30 10° N
Cosmos 2228 Rocket 4.1 20:29:50 10° SSE 20:33:51 31° E 20:37:52 10° NNE
Cosmos 1464 Rocket 4.0 20:28:43 10° S 20:34:53 76° E 20:41:03 10° NNE
ARGOS Delta rocket 4.2 20:30:15 10° NNE 20:35:47 88° ESE 20:41:14 10° SSW
Cosmos 2344 3.5 20:30:34 10° SSW 20:37:54 60° ESE 20:45:25 10° NE
ISS -3.8 20:34:34 10° WNW 20:37:55 86° SSW 20:41:16 10° ESE
Cosmos 2322 Rocket 4.0 20:37:02 10° ESE 20:39:07 12° E 20:41:11 10° ENE
Cosmos 2369 3.7 20:33:58 10° SSW 20:39:33 65° ESE 20:45:10 10° NNE
Cosmos 773 Rocket 4.1 20:34:55 10° NNW 20:40:10 71° ENE 20:45:19 10° SSE
Cosmos 1844 Rocket 4.5 20:35:55 10° N 20:40:11 21° NE 20:44:24 10° E
Cosmos 1354 Rocket 4.2 20:35:22 10° S 20:40:28 53° ESE 20:45:38 10° NNE
Cosmos 1536 3.5 20:36:38 10° NNW 20:40:35 56° W 20:44:32 10° S
Spot 2 Rocket 3.9 20:35:56 10° SE 20:40:47 50° ENE 20:45:40 10° N
SPOT 3 Rocket 3.6 20:36:48 10° SSE 20:41:56 77° ENE 20:47:06 10° NNW
ATLAS 2AS CENTAUR R/B 3.2 20:35:18 10° S 20:42:40 48° ESE 20:49:51 10° NE
Okean 1 3.6 20:41:11 10° S 20:45:03 50° E 20:48:58 10° NNE
H-2A R/B 3.2 20:41:41 10° N 20:45:36 45° WNW 20:49:31 10° SW
Cosmos 1486 Rocket 4.3 20:40:39 10° SSW 20:45:56 75° WNW 20:51:15 10° NNE
Cosmos 1092 Rocket 4.3 20:40:16 10° N 20:46:18 51° ENE 20:52:05 11° SSE
Meteor 1-19 Rocket 4.3 20:41:54 10° S 20:47:10 55° E 20:52:27 10° NNE
Nadezhda 4 Rocket 4.0 20:40:56 10° N 20:47:13 84° E 20:53:22 10° S
NOSS 3-4 (A) 3.7 20:41:31 10° SW 20:47:16 73° NW 20:53:35 10° NE
NOSS 3-4 (C) 3.7 20:41:33 10° SW 20:47:19 74° NW 20:53:39 10° NE
SL-4 R/B 3.7 20:44:46 10° W 20:48:30 25° SW 20:52:02 10° SSE
RESURS DK-1 2.9 20:44:55 10° S 20:48:42 36° ESE 20:52:31 10° NE
Cosmos 1697 Rocket 3.1 20:43:05 10° SW 20:48:44 70° WNW 20:54:25 10° NNE
Meteor 2-14 Rocket 4.5 20:44:03 10° N 20:50:09 77° E 20:56:15 10° SSE
USA 267 4.3 20:49:02 10° ENE 20:55:13 47° N 21:01:25 10° WNW
Cosmos 2297 Rocket 4.4 20:51:31 10° NW 20:55:26 20° W 20:59:21 10° SW
ATLAS CENTAUR R/B 3.8 20:51:53 10° NNW 20:55:40 22° NNE 20:59:23 10° ENE
ARIANE 5 R/B 3.5 20:53:39 12° SE 20:57:21 37° ENE 21:01:31 10° N
Cosmos 44 Rocket 3.4 20:52:39 10° NW 20:57:22 67° NE 21:01:28 13° SE
Cosmos 2227 4.4 20:57:17 10° NNW 21:03:02 65° ENE 21:07:59 14° SE
Cosmos 1184 Rocket 3.8 21:01:30 10° SSW 21:04:23 43° WNW 21:07:18 10° N
Cosmos 158 Rocket 4.1 20:59:54 10° NNW 21:05:01 69° ENE 21:09:24 15° SSE
ATLAS 3B R/B 3.2 20:59:03 10° NW 21:06:18 65° NE 21:13:24 12° ESE
Meteor 2-9 Rocket 4.3 21:00:41 10° NNW 21:06:31 83° WSW 21:12:06 10° S
NOSS 2-1 (E) 4.3 21:08:10 17° SE 21:08:49 18° ESE 21:11:08 10° ENE
Cosmos 1975 3.0 21:06:28 10° N 21:10:30 59° ENE 21:13:33 17° SSE
Cosmos 2026 Rocket 4.1 21:05:29 10° N 21:11:37 67° ENE 21:17:01 14° SSE
Cosmos 389 Rocket 4.4 21:08:49 10° NW 21:11:47 26° W 21:14:45 10° SSW
Cosmos 1503 Rocket 4.3 21:09:58 10° SSW 21:15:14 72° WNW 21:20:37 10° NNE
CZ-4B R/B 3.8 21:13:39 10° NNW 21:16:13 22° WNW 21:18:46 10° WSW
ERS-1 Rocket 3.0 21:12:32 14° SSE 21:16:54 85° ENE 21:21:59 10° NNW
CZ-4C R/B 4.2 21:11:52 10° NW 21:17:41 33° NNE 21:24:35 10° E
Meteor 1-4 Rocket 4.2 21:14:57 10° NNE 21:17:42 21° ENE 21:19:36 15° ESE
SL-16 R/B 2.9 21:13:28 13° SSE 21:17:49 33° ESE 21:22:50 10° NE
BREEZE-M (TANK) 4.4 21:13:26 10° W 21:18:01 88° S 21:39:07 10° E
Cosmos 1538 Rocket 4.1 21:15:08 10° NNW 21:20:23 67° ENE 21:24:18 18° SE
Helios 1A Rocket 3.3 21:19:01 13° S 21:22:32 58° WSW 21:26:30 10° NNW
CZ-2C R/B 3.8 21:18:38 10° NNE 21:23:24 64° ESE 21:27:47 12° S
Cosmos 1733 Rocket 3.4 21:20:24 10° N 21:24:46 52° ENE 21:27:44 19° SSE
SAR-Lupe-4 4.5 21:28:40 10° NNE 21:31:56 31° E 21:33:22 23° SE
Geosat 4.4 21:28:35 17° SE 21:32:24 57° NE 21:37:19 10° NNW
SJ 16-02 1.7 21:28:10 10° SSW 21:32:31 65° WNW 21:36:53 10° NNE
Meteor 1-18 Rocket 4.2 21:27:17 10° S 21:32:59 86° ESE 21:38:39 10° NNE
Cosmos 2292 Rocket 3.1 21:33:29 10° NNW 21:36:29 56° W 21:38:15 21° SSW
Cosmos 2278 3.8 21:32:34 10° SSW 21:38:15 85° WNW 21:43:59 10° NNE
Cosmos 1862 Rocket 3.9 21:37:31 21° SSE 21:40:14 49° E 21:44:35 10° NNE
BREEZE M DEB (TANK) 4.4 21:37:44 10° W 21:42:11 50° SSW 21:55:47 13° SE
Cosmos 2360 Rocket 3.3 21:40:42 19° SE 21:43:00 25° ESE 21:47:31 10° NE
Cosmos 1726 4.0 21:40:48 10° NNE 21:43:31 19° ENE 21:45:09 15° ESE
Cosmos 2263 Rocket 2.9 21:39:45 10° NW 21:45:04 46° WSW 21:49:11 16° S
Meteor 2-15 4.4 21:41:00 15° S 21:46:07 74° E 21:52:11 10° NNE
NOSS 2-1 (C) 2.8 21:46:44 17° SSW 21:49:02 54° SE 21:52:13 10° NE
SPOT 5 3.8 21:45:43 13° S 21:50:13 47° W 21:55:10 10° NNW
Terra 2.2 21:47:56 18° S 21:51:24 61° W 21:56:08 10° NNW
Cosmos 1441 Rocket 3.5 21:51:04 28° SSE 21:52:36 47° E 21:56:12 10° NNE
Resurs 01 Rocket 4.3 21:51:22 10° WSW 21:52:54 12° W 21:54:26 10° WNW
SAR-Lupe-1 4.1 21:49:28 10° NNE 21:53:03 62° ESE 21:54:46 28° S
Cosmos 1346 Rocket 2.8 21:50:23 18° SSW 21:53:15 88° W 21:57:19 10° NNE
Cosmos 2279 Rocket 4.0 21:53:29 18° S 21:58:08 72° E 22:04:21 10° NNE
NOSS 2-1 (D) 2.6 21:56:58 15° SSW 21:59:29 70° SE 22:02:43 10° NE
Cosmos 1680 Rocket 4.0 21:54:57 10° NNW 22:00:08 51° ENE 22:03:26 21° SE
USA 215 4.0 21:55:04 10° ENE 22:00:41 29° SE 22:03:42 21° S
Cosmos 990 Rocket 4.3 21:57:54 23° SSE 22:00:53 48° ESE 22:05:55 10° NNE
Iridium 2 3.6 21:58:55 10° N 22:02:42 82° E 22:04:23 31° S
Cosmos 1818 4.0 22:02:53 10° NW 22:08:19 60° NE 22:12:09 19° ESE
Cosmos 1066 Rocket 4.3 22:05:06 23° S 22:08:45 64° E 22:14:20 10° NNE
ADEOS Rocket 4.5 22:05:31 11° ESE 22:09:53 26° NE 22:14:47 10° N
Iridium 4 Rocket 3.9 22:07:06 10° N 22:11:28 43° E 22:13:44 26° SE
Cosmos 1980 Rocket 3.8 22:08:57 10° WSW 22:14:06 35° NW 22:19:20 10° NNE
Cosmos 1898 Rocket 4.0 22:11:50 26° SSE 22:14:16 43° ESE 22:19:17 10° NE
ISS -2.2 22:11:42 10° W 22:14:21 22° SW 22:14:21 22° SW
Okean 1-7 3.5 22:17:26 31° SE 22:19:04 46° E 22:23:15 10° NNE
Iridium 51 4.1 22:21:01 41° SSE 22:21:58 62° E 22:25:31 10° N
Cosmos 2322 Rocket 2.1 22:18:02 19° SSW 22:22:08 72° ESE 22:27:44 10° NNE
Cosmos 1844 Rocket 2.6 22:19:16 10° NNW 22:24:53 87° ENE 22:27:57 28° SSE
Cosmos 2180 Rocket 4.4 22:21:19 22° S 22:25:26 85° E 22:31:38 10° N
Okean 3 4.1 22:25:02 31° SE 22:26:20 41° E 22:30:21 10° NNE
RESURS DK-1 4.3 22:23:07 10° WSW 22:26:46 29° NW 22:30:25 10° NNE
Cosmos 1805 3.4 22:23:03 10° NNW 22:26:57 68° W 22:28:28 34° S
Cosmos 2333 Rocket 3.1 22:25:18 25° SE 22:27:09 31° ESE 22:32:04 10° NE
Cosmos 1461 4.3 22:27:01 10° NNW 22:30:48 34° NE 22:33:54 14° E
H-2A R/B 4.4 22:27:49 10° NNE 22:31:28 30° E 22:32:20 28° ESE
BREEZE-M DEB (TANK) 3.2 22:29:12 10° W 22:31:42 32° SSW 22:31:52 31° SSW
ATLAS 2AS CENTAUR R/B 3.6 22:25:58 10° WSW 22:33:38 59° NW 22:41:00 10° NE
ARIANE 5 R/B 4.1 22:31:11 16° SW 22:33:52 29° W 22:37:48 10° NW
ATLAS CENTAUR R/B 1.9 22:30:25 10° NW 22:35:19 71° NE 22:37:50 27° SE
USA 267 3.6 22:31:17 10° ESE 22:37:47 68° NNE 22:44:16 10° WNW
Cosmos 1733 3.8 22:36:23 10° NNW 22:40:02 46° W 22:41:23 31° SSW
Cosmos 1766 3.2 22:38:10 10° N 22:42:07 87° W 22:43:23 42° S
Cosmos 2219 Rocket 3.0 22:44:47 28° SE 22:46:28 33° ESE 22:51:26 10° NE
Cosmos 1844 3.8 22:42:47 10° NNW 22:48:36 76° WSW 22:51:27 31° SSE
Cosmos 1703 Rocket 3.5 22:48:15 36° S 22:50:03 87° ESE 22:54:30 10° N
Meteor 1-4 Rocket 3.9 22:49:31 10° NNW 22:52:33 28° W 22:53:35 24° SW
Cosmos 372 Rocket 4.3 22:51:17 33° SSE 22:53:03 47° ESE 22:58:00 10° NNE
ATLAS 3B R/B 3.6 22:50:06 10° NW 22:56:51 40° WSW 23:00:39 24° SSW
NOSS 2-1 (E) 4.3 22:55:54 10° WSW 22:58:53 36° NW 23:02:04 10° NNE
NOSS 3-1 (A) 4.3 22:53:30 10° NW 23:00:37 65° NE 23:08:57 11° ESE
Cosmos 1655 Rocket 4.2 22:54:36 10° NNW 23:00:48 66° W 23:04:10 28° SSW
Cosmos 1707 3.6 23:00:36 32° ESE 23:01:16 34° E 23:04:47 10° NNE
SL-16 R/B 3.1 22:56:15 10° SW 23:01:44 49° NW 23:07:16 10° NNE
Cosmos 1782 Rocket 3.5 22:59:00 10° NNW 23:03:22 79° W 23:04:50 41° S
ERS-2 2.5 23:02:57 10° NNE 23:06:28 46° E 23:06:52 44° ESE
SWARM C 4.4 23:06:26 64° SSE 23:06:52 77° E 23:10:16 10° N
CZ-4C R/B 3.1 23:00:16 10° NW 23:07:18 76° NE 23:14:17 16° SE
NOSS 3-1 (C) 4.0 23:00:41 10° NW 23:08:01 86° SW 23:14:02 22° SE
USA 290 4.2 23:10:46 18° E 23:10:46 18° E 23:12:32 10° NE
Cosmos 1238 Rocket 4.1 23:09:12 10° NNE 23:11:31 20° ENE 23:11:57 19° E
SJ 16-02 4.4 23:10:37 10° WNW 23:12:00 11° NW 23:13:22 10° NNW
SWARM A 4.1 23:12:49 67° S 23:13:15 88° E 23:16:39 10° N
Gblst 52 Del rocket 4.2 23:07:58 10° WSW 23:14:23 74° SSE 23:20:06 10° ENE
Cosmos 2237 Rocket 4.0 23:14:56 15° ESE 23:16:31 16° E 23:19:55 10° ENE
Cosmos 1470 2.6 23:14:17 10° N 23:18:11 86° W 23:19:01 53° S
Cosmos 1726 3.1 23:15:15 10° NNW 23:18:39 36° W 23:19:26 31° WSW
Cosmos 1300 Rocket 3.5 23:15:08 10° N 23:19:31 83° E 23:20:51 44° SSE
COSMOS 2428 3.2 23:17:53 32° SSE 23:19:47 43° ESE 23:25:08 10° NE
Cosmos 2151 Rocket 4.3 23:18:04 10° N 23:22:18 43° ENE 23:23:57 30° SE
Cosmos 2242 Rocket 4.0 23:21:24 32° SW 23:23:20 59° WNW 23:27:51 10° N
ALOS 2 2.6 23:22:00 43° S 23:23:22 72° WSW 23:27:46 10° NNW
Cosmos 1242 Rocket 2.9 23:21:53 10° N 23:25:26 55° ENE 23:26:07 46° ESE
Cosmos 1937 Rocket 3.6 23:22:47 27° SW 23:25:40 72° WNW 23:30:59 10° NNE
Okean 2 Rocket 3.5 23:21:58 10° N 23:26:26 54° ENE 23:28:05 34° SE
Cosmos 2360 Rocket 2.6 23:22:25 18° SW 23:26:34 62° WNW 23:32:12 10° NNE
Cosmos 405 Rocket 4.2 23:28:20 22° ESE 23:28:52 23° E 23:31:55 10° NE
In-Cosmos 22 4.3 23:29:31 34° SSE 23:31:48 61° E 23:37:11 10° NNE
Cosmos 2333 4.1 23:29:02 29° SSW 23:32:02 87° WNW 23:37:44 10° NNE
Cosmos 1437 Rocket 4.2 23:28:56 10° N 23:32:13 28° ENE 23:33:33 22° ESE
Cosmos 1908 3.9 23:30:11 10° N 23:33:50 44° ENE 23:34:48 36° ESE
Cosmos 1867 3.9 23:33:43 36° S 23:35:29 50° ESE 23:40:47 10° NE
Meteor 1-21 4.3 23:34:35 34° S 23:37:10 73° E 23:42:59 10° NNE
Cosmos 1626 2.7 23:37:36 39° ESE 23:38:04 41° E 23:41:33 10° NNE
Cosmos 1842 4.0 23:38:57 33° WSW 23:40:10 44° WNW 23:43:55 10° N
Cosmos 1953 3.5 23:39:35 10° N 23:43:17 34° ENE 23:44:46 25° ESE
USA 215 3.2 23:37:43 10° ENE 23:44:17 83° SE 23:50:53 10° SW
Cosmos 2278 Rocket 2.6 23:39:24 10° NNW 23:45:03 60° ENE 23:48:51 21° SE
Cosmos 1674 2.6 23:50:45 57° SSE 23:51:23 73° E 23:55:09 10° NNE
Sich 1 Rocket 3.6 23:48:21 10° NNW 23:52:44 68° W 23:54:00 44° SSW
